{"data":{"norad_id":55499,"intl_designator":"2023-015BC","name":"STARLINK-5366","alt_names":[],"object_type":"PAYLOAD","status":"ACTIVE","operator":null,"country":"US","launch_date":"2023-02-02","launch_site_code":"AFETR","launch_vehicle":null,"mission":null,"orbit_class":"UNKNOWN","rcs_meters":null,"size_class":null,"mass_kg":null,"dimensions":null,"purposes":["comms"],"wikipedia_slug":null,"has_3d_model":false,"image_url":null,"decayed_at":null,"tle_current":{"epoch":"2026-09-20T04:17:46.623840Z","epoch_age_seconds":128138,"freshness":"FRESH","line1":"1 55499U 23015BC  26263.17901185 -.00000017  00000+0  88970-5 0  9999","line2":"2 55499  43.0019 321.0263 0001229 266.1053  93.9658 15.27575133201096","mean_motion":15.27575133,"eccentricity":0.0001229,"inclination_deg":43.0019,"raan_deg":321.0263,"arg_perigee_deg":266.1053,"mean_anomaly_deg":93.9658,"bstar":8.897e-6,"rev_number":20109,"period_min":94.2670490565,"perigee_km":482.22042806494,"apogee_km":483.90691118954,"semimajor_km":6861.2006696272,"source":"CELESTRAK","updated_at":"2026-09-21T09:00:33.260990Z"}}}